METEOR 2-11

导读

METEOR 2-11是独联体(CIS)继承自苏联航天遗产发射的第二代极轨气象卫星,属于“流星-2”系列,于1984年7月5日成功入轨。它运行在约850-950公里高度的近极轨道,携带可见光/红外相机与辐射探测设备,可获取云层、大气辐射数据,支撑气象预报与气候研究,为全球气象观测网络提供了重要数据支撑,是苏联气象卫星体系延续发展的代表性节点。

Basic Information
目录编号:
15099
目录名称:
METEOR 2-11
国际标识:
1984-072A
轨道中心:
EARTH
卫星名称:
METEOR 2-11
卫星全名:
--
卫星状态:
在轨 (已飞行15409 天)
发射日期:
1984-07-05 UTC
国别 :
俄罗斯(独联体) (CIS)
星等 :
--
This satellite is enrolled in the Space Conjunction Data Service (SCDS) and the current flight risk assessment level is: No High Risk
Orbit Information
数据来源 国际轨道数据 AOE轨道数据
星历时间 2026-09-11T23:32:55+0800
11小时前
查看轨道信息
2026-09-11T01:00:00+0800
1天前
查看轨道信息
半长轴 7323.259km 7323.258km
偏心率 0.0012665 0.0012638
轨道倾角 82.534° 82.535°
近地点辐角 201.644° 204.462°
升交点赤经 330.218° 330.967°
平近点角 158.418° 152.732°
近地点 935.847km 935.865km
远地点 954.397km 954.377km
周期 103.948分钟 103.948分钟
每日圈数 13.853077 13.853078
Detailed Information
使用方式:
暂无
2D Orbit Map
3D Orbit Map
Orbit Altitude Analysis Chart
Orbit Inclination Analysis Chart
Orbit Comprehensive Analysis Chart
View Comprehensive Chart
Conjunction Data List
Event ID Objects TCA Miss Dist (km) Collision Risk Probability Collision Risk Index (CRI) Action
CDM_260914-081600-582601-509921
2026-09-14T
08:16:07+0000
1.767 km
极远距离
3.616847E-6 低风险 0.46
CDM_260912-050101-509903-516727
2026-09-12T
05:01:37+0000
2.634 km
极远距离
1.265211E-6 低风险 0.37
Miss Distance Evolution Trend with All Objects
Collision Probability Evolution Trend with All Objects